Torna al catalogo

STARLINK-35802

AttivoComunicazioniVLEO
NORAD 66289·PAYLOAD·🇺🇸 United States

Lanciato Oct 31, 2025 da Vandenberg Space Force Base

Loading…

Prossimi Passaggi (prossime 24 ore)

TLE

AggiornatoSource: CelesTrak SupGP

Epoca: Sep 14, 2026, 22:55 UTC

1 66289C 25247AA  26257.95534722 -.00003557  00000+0 -10509-3 0  2576
2 66289  53.1606  27.8774 0001210  71.9797 290.5418 15.34389017    14

Traccia STARLINK-35802 in tempo reale con AllMySat

Download on the App Store